Regional Weather Roundup
Issued by NWS

Home | Current Version | Previous Version | Text Only | Print | Product List | Glossary Off
Versions: 1 2 3 4 5 6 7 8 9 10 11 12 13 14 15 16 17 18 19 20 21 22 23 24 25 26 27 28 29 30 31 32 33 34 35 36 37 38 39 40 41 42 43 44 45 46 47 48 49 50

000
ASUS43 KLOT 260304
RWRIL

ILLINOIS REGIONAL WEATHER ROUNDUP
NATIONAL WEATHER SERVICE CHICAGO/ROMEOVILLE IL
1000 PM CDT THU MAY 25 2017

NOTE: "FAIR" INDICATES FEW OR NO CLOUDS BELOW 12,000 FEET WITH NO
SIGNIFICANT WEATHER AND/OR OBSTRUCTIONS TO VISIBILITY.

* THESE STATIONS ARE NOT UNDER NWS QUALITY CONTROL. THEY ALSO MAY NOT
  REPORT WEATHER SUCH AS PRECIPITATION OR FOG.

ILZ001-002-007-009-015-016-024-260400-
NORTHWEST ILLINOIS

CITY           SKY/WX    TMP DP  RH WIND       PRES   REMARKS
MOLINE         CLEAR     61  54  77 E5        29.74R
STERLING*      CLOUDY    62  57  83 S3        29.76R
SAVANNA*       CLOUDY    61  55  79 CALM      29.75R
$$

ILZ003-004-008-010-011-017-018-260400-
NORTH CENTRAL ILLINOIS

CITY           SKY/WX    TMP DP  RH WIND       PRES   REMARKS
ROCKFORD       PTCLDY    60  54  80 CALM      29.76R
FREEPORT*      CLOUDY    58  55  90 CALM      29.76R
ROCHELLE*      CLEAR     57  55  93 CALM      29.76R
DE KALB*       PTCLDY    59  53  79 CALM      29.76R
PERU*          CLOUDY    60  55  84 S6        29.76R
$$

ILZ005-006-012>014-019>023-260400-
NORTHEAST ILLINOIS

CITY           SKY/WX    TMP DP  RH WIND       PRES   REMARKS
CHICAGO-OHARE  PTCLDY    57  49  74 CALM      29.75R
CHICAGO-MIDWAY PTCLDY    59  50  72 N6        29.76R
AURORA         PTCLDY    62  55  77 CALM      29.76R
LANSING*       CLEAR     52  51  95 CALM      29.77R
JOLIET*        CLEAR     57  55  91 CALM      29.76R
WAUKEGAN       MOCLDY    55  51  86 CALM      29.75R
DUPAGE AIRPORT MOCLDY    59  54  83 E5        29.75R
KANKAKEE*      MOCLDY    56  51  82 CALM      29.78R
WHEELING       CLEAR     54  52  93 CALM      29.77R
MORRIS*        CLEAR     58  54  85 CALM      29.75R
ROMEOVILLE*    PTCLDY    58  55  90 SE3       29.76R
NORTHERLY ISL    N/A     57  51  80 MISG        N/A
$$

LMZ740>746-260400-
SOUTHERN LAKE MICHIGAN

STATION/POSITION SKY/WX   TEMP    WIND        PRES    VSBY  WAVE
                          AIR SEA DIR/SP/G                  HT/PER
                          (F)     (DEG/KT/KT) (MB)    (MI)  (FT/S)
SOUTHERN BUOY              49 45  340/ 12/ 14 1005.6          2/ 5
WILMETTE HARBOR            51 51                N/A           2/ 5
HARRISON CRIB              54     330/  9/ 10   N/A
BURNHAM HARBOR             57     340/  5/  9   N/A
CALUMET HARBOR             54     340/  5/  7 1007.1R
BURNS HARBOR               54     280/  7/  9 1008.1R
MICHIGAN CITY              51     230/  9/ 10   N/A
MICHIGAN CITY 6N           51 51  260/  6/  8   N/A           3/ 5
ST. JOSEPH                 52 55  280/  6/  8 1007.2R         3/ 5
$$

ILZ025>027-034>036-040-047-049-050-058-095>099-260400-
WEST-CENTRAL ILLINOIS

CITY           SKY/WX    TMP DP  RH WIND       PRES   REMARKS
QUINCY         CLEAR     64  54  69 SE3       29.75R
GALESBURG*     CLOUDY    64  56  77 E5        29.75R
MACOMB*        CLOUDY    62  56  82 CALM      29.78R
JACKSONVILLE*  CLEAR     60  55  83 CALM      29.76R
PITTSFIELD*    CLEAR     63  56  78 E3        29.76R
$$

ILZ028>032-037-038-041>044-048-051>054-059>061-260400-
CENTRAL ILLINOIS

CITY           SKY/WX    TMP DP  RH WIND       PRES   REMARKS
PONTIAC        CLEAR     57  56  97 CALM      29.78R
BLOOMINGTON    CLEAR     58  54  86 E5        29.78R
DECATUR        CLEAR     61  57  87 E6        29.77R
PEORIA         CLEAR     60  56  86 E6        29.76R
LACON*         CLEAR     55  55  97 CALM      29.75R
LINCOLN*       CLEAR     62  55  76 CALM      29.76R
SPRINGFIELD    CLEAR     62  56  80 CALM      29.76R
TAYLORVILLE    CLEAR     60  56  88 CALM      29.77R
$$

ILZ033-039-045-046-055>057-062-063-260400-
EAST-CENTRAL ILLINOIS

CITY           SKY/WX    TMP DP  RH WIND       PRES   REMARKS
CHAMPAIGN      CLEAR     58  54  86 NE3       29.78R
RANTOUL*       CLEAR     57  56  94 CALM      29.78R
MATTOON        CLEAR     62  60  93 CALM      29.78R
PARIS*         CLEAR     56  56  98 CALM      29.79R
$$

ILZ079-100>102-260400-
SOUTHWEST ILLINOIS

CITY           SKY/WX    TMP DP  RH WIND       PRES   REMARKS
ALTON          CLEAR     61  54  77 CALM      29.76R
BELLEVILLE     CLEAR     60  55  83 CALM      29.77R
CAHOKIA*       CLEAR     61  52  72 CALM      29.75R
SPARTA*        PTCLDY    64  53  68 SE5       29.78R
$$

ILZ064>066-069>071-074>076-080>082-084>086-088>090-092>094-260400-
SOUTH-CENTRAL ILLINOIS

CITY           SKY/WX    TMP DP  RH WIND       PRES   REMARKS
CARBONDALE     CLEAR     61  54  77 S6        29.78R
CAIRO*         PTCLDY    68  52  57 SW6       29.80R
EFFINGHAM*     CLEAR     59  59  99 CALM      29.80R
MARION         CLEAR     64  54  68 S3        29.79R
MT. VERNON       N/A     55  53  93 CALM      29.78R
CENTRALIA*     CLEAR     62  58  86 CALM      29.77R
SALEM*         CLEAR     62  55  77 CALM      29.77R
$$

ILZ067-068-072-073-078-083-087-091-260400-
SOUTHEAST ILLINOIS

CITY           SKY/WX    TMP DP  RH WIND       PRES   REMARKS
LAWRENCEVILLE  CLEAR     63  58  83 CALM      29.78R
FLORA*         CLEAR     62  57  84 CALM      29.79R
FAIRFIELD*     CLEAR     60  56  87 CALM      29.78R
HARRISBURG*    CLEAR     59  54  84 CALM      29.79R
ROBINSON*      CLEAR     59  58  96 CALM      29.79R
CARMI*         CLEAR     60  56  87 CALM      29.79R
$$

ABBREVIATIONS USED IN REMARKS
   TC - TEMPERATURE IN CELSIUS
  WCI - WIND CHILL INDEX
   HX - HEAT INDEX
  VSB - VISIBILITY
$$




USA.gov is the U.S. government's official web portal to all federal, state and local government web resources and services.